Retour au catalogue

ATLAS 5 CENTAUR DEB

LostHEO
NORAD 46464·DEBRIS·🇺🇸 United States

Lancé Sep 17, 2014 depuis Cape Canaveral Space Force Station

Loading…

Prochains Passages (prochaines 24 heures)

TLE

PériméSource: Space-Track

Époque: Aug 1, 2026, 04:49 UTC

1 46464U 14055CL  26213.20086333 -.00000065  00000-0  00000-0 0  9990
2 46464  19.8077 147.8636 4796029 156.7060 235.3422  1.82516519 44664

Suivez ATLAS 5 CENTAUR DEB en temps réel avec AllMySat

Download on the App Store